This demonstration page uses our WeatherBlox Daily Observations layout. Learn more.

Left ArrowRight Arrow

41.86663, -103.66717

Hourly Observations for December 4, 2020

Temp ( °F °C ) Dew Point ( °F °C ) Humidity (%) Winds ( mph kmh ) Pressure ( in mb ) Visibility ( mi km ) Precip ( " mm )
12:53 am 00:53 Clear 26 -3.3 11 -11.7 53 53 NW 12 19 30.24 1024 10 16 0.00 0.00
1:53 am 01:53 Clear 26 -3.3 11 -11.7 53 53 NW 12 19 30.22 1023 10 16 0.00 0.00
2:53 am 02:53 Clear 23 -5 10 -12.2 57 57 NNW 10 17 30.23 1024 10 16 0.00 0.00
3:53 am 03:53 Clear 23 -5 10 -12.2 57 57 NW 10 17 30.24 1024 10 16 0.00 0.00
4:53 am 04:53 Clear 25 -3.9 11 -11.7 55 55 NW 12 19 30.25 1024 10 16 0.00 0.00
5:53 am 05:53 Clear 22 -5.6 10 -12.2 60 60 NW 9 15 30.28 1025 10 16 0.00 0.00
6:53 am 06:53 Clear 23 -5 10 -12.2 57 57 NW 5 7 30.29 1026 10 16 0.00 0.00
7:53 am 07:53 Sunny 26 -3.3 11 -11.7 53 53 NNW 7 11 30.30 1026 10 16 0.00 0.00
8:53 am 08:53 Sunny 36 2.2 13 -10.6 39 39 WNW 12 19 30.30 1026 10 16 0.00 0.00
9:53 am 09:53 Sunny 43 6.1 12 -11.1 28 28 WNW 16 26 30.30 1026 10 16 0.00 0.00
10:53 am 10:53 Sunny 49 9.4 11 -11.7 21 21 WNW 22 35 30.27 1025 10 16 0.00 0.00
11:53 am 11:53 Sunny 56 13.3 13 -10.6 18 18 WNW 17 28 30.23 1024 10 16 0.00 0.00
12:53 pm 12:53 Sunny 58 14.4 14 -10 18 18 WNW 18 30 30.22 1023 10 16 0.00 0.00
1:53 pm 13:53 Sunny 59 15 14 -10 17 17 WNW 15 24 30.20 1023 10 16 0.00 0.00
2:53 pm 14:53 Sunny 59 15 14 -10 17 17 WNW 12 19 30.22 1023 10 16 0.00 0.00
3:53 pm 15:53 Sunny 55 12.8 15 -9.4 20 20 W 12 19 30.24 1024 10 16 0.00 0.00
4:53 pm 16:53 Clear 46 7.8 14 -10 27 27 WNW 8 13 30.28 1026 10 16 0.00 0.00
5:53 pm 17:53 Clear 43 6.1 13 -10.6 29 29 VRB 3 6 30.33 1027 10 16 0.00 0.00
6:53 pm 18:53 Clear 34 1.1 12 -11.1 40 40 NW 7 11 30.37 1028 10 16 0.00 0.00
7:53 pm 19:53 Clear 32 0 12 -11.1 43 43 NW 10 17 30.39 1029 10 16 0.00 0.00
8:53 pm 20:53 Clear 30 -1.1 12 -11.1 47 47 NW 8 13 30.38 1029 10 16 0.00 0.00
9:53 pm 21:53 Clear 28 -2.2 12 -11.1 51 51 NW 9 15 30.39 1029 10 16 0.00 0.00
10:53 pm 22:53 Clear 28 -2.2 12 -11.1 51 51 NW 6 9 30.40 1029 10 16 0.00 0.00
11:53 pm 23:53 Clear 34 1.1 14 -10 44 44 W 8 13 30.36 1028 10 16 0.00 0.00

Powered by AerisWeather